Location: Grasslands National Park East Block
(49.0708°N, 106.5295°W)
Time: 15:10:02
(UTC-06:00)

Vanguard 1 - Pass Details

Date: 25 September 2019
Orbit: 653 x 3830 km, 34.2° (Epoch: 17 October)

Event Time Altitude Azimuth Distance (km) Brightness Sun altitude
Rises 07:04:30 0° 275° (W) 7,931 14.0 0.4°
Reaches altitude 10° 07:10:53 10° 268° (W) 6,722 13.7 1.5°
Maximum altitude 07:28:05 34° 214° (SSW) 3,949 13.0 4.3°
Drops below altitude 10° 07:39:26 10° 155° (SSE) 4,440 14.0 6.1°
Sets 07:42:40 0° 145° (SE) 5,050 14.4 6.6°
